Weather History for Buffalo, SD

Change the Weather History Date:

Saturday, January 19, 2013

  Actual Average Record
Temperature  
Mean Temperature 25 °F 21 °F  
Max Temperature 36 °F 31 °F 61 °F (2005)
Min Temperature 14 °F 10 °F -14 °F (2008)
Degree Days  
Heating Degree Days 40 44  
Month to date heating degree days 774 853  
Since 1 July heating degree days 3776 4113  
Cooling Degree Days 0 0  
Month to date cooling degree days 0 0  
Year to date cooling degree days 0 0  
Moisture  
Dew Point 18 °F    
Average Humidity 71    
Maximum Humidity 81    
Minimum Humidity 61    
Precipitation  
Precipitation 0.00 in 0.00 in 0.09 in (2012)
Month to date precipitation 0.02 0.17  
Year to date precipitation 0.02 0.17  
Sea Level Pressure  
Sea Level Pressure 30.12 in    
Wind  
Wind Speed 16 mph (NNW)    
Max Wind Speed 33 mph    
Max Gust Speed 39 mph    
T = Trace of Precipitation, MM = Missing Value Source: NWS Daily Summary

Daily Weather History Graph

Daily Weather History Graph

Search for Another Location

Airport:

Trip Planner

Search our weather history database for the weather conditions in past years. The results will help you decide how hot, cold, wet, or windy it might be!

Date:

Astronomy

Jan. 19, 2013 Rise Set
Actual Time 7:27 AM MST 4:42 PM MST
Civil Twilight 6:55 AM MST 5:15 PM MST
Nautical Twilight 6:18 AM MST 5:51 PM MST
Astronomical Twilight 5:43 AM MST 6:27 PM MST
Moon 11:13 AM MST 1:00 AM MST
Length of Visible Light 10h 20m
Length of Day
9h 14m
First Quarter, 58% of the Moon is Illuminated
Jan 19
First Quarter
Jan 26
Full
Feb 3
Last Quarter
Feb 10
New
Feb 17
First Quarter

Hourly Weather History & Observations

Time (MST) Temp. Windchill Dew Point Humidity Pressure Visibility Wind Dir Wind Speed Gust Speed Precip Events Conditions
12:56 AM 33.1 °F 22.6 °F 23.0 °F 66% 29.84 in - WNW 16.1 mph - N/A   Unknown
1:56 AM 33.1 °F 21.2 °F 21.9 °F 64% 29.88 in - WNW 20.7 mph - N/A   Unknown
2:56 AM 34.0 °F 22.1 °F 23.0 °F 64% 29.89 in - WNW 21.9 mph - N/A   Unknown
3:56 AM 34.0 °F 22.7 °F 23.0 °F 64% 29.91 in - WNW 19.6 mph - N/A   Unknown
4:56 AM 27.0 °F 15.6 °F 21.0 °F 78% 29.97 in - West 13.8 mph - N/A   Unknown
5:56 AM 30.9 °F 18.4 °F 21.9 °F 69% 30.00 in - WNW 20.7 mph - N/A   Unknown
6:56 AM 30.0 °F 17.9 °F 21.9 °F 72% 30.01 in - WNW 18.4 mph - N/A   Unknown
7:56 AM 30.0 °F 19.5 °F 23.0 °F 75% 30.05 in - WNW 13.8 mph - N/A   Unknown
8:56 AM 35.1 °F 22.7 °F 24.1 °F 64% 30.08 in - NW 25.3 mph 33.4 mph N/A   Unknown
9:56 AM 34.0 °F 21.5 °F 26.1 °F 73% 30.13 in - NW 24.2 mph 33.4 mph N/A   Unknown
10:56 AM 35.1 °F 21.6 °F 25.0 °F 67% 30.15 in - NW 31.1 mph 38.0 mph N/A   Unknown
11:56 AM 33.1 °F 20.1 °F 24.1 °F 70% 30.18 in - NW 25.3 mph 34.5 mph N/A   Unknown
12:56 PM 32.0 °F 18.9 °F 21.0 °F 64% 30.17 in - NNW 24.2 mph - N/A   Unknown
1:56 PM 28.9 °F 14.8 °F 19.0 °F 67% 30.21 in - NNW 24.2 mph - N/A   Unknown
2:56 PM 25.0 °F 11.7 °F 17.1 °F 72% 30.25 in - NNW 17.3 mph - N/A   Unknown
3:56 PM 23.0 °F 11.1 °F 16.0 °F 74% 30.28 in - NNW 12.7 mph - N/A   Unknown
4:56 PM 21.0 °F 9.3 °F 12.9 °F 71% 30.30 in - NW 11.5 mph - N/A   Unknown
5:56 PM 19.9 °F 8.6 °F 14.0 °F 78% 30.27 in - NNW 10.4 mph - N/A   Unknown
6:56 PM 17.1 °F 5.0 °F 12.0 °F 81% 30.28 in - East 10.4 mph - N/A   Unknown
7:56 PM 16.0 °F 6.3 °F 10.9 °F 81% 30.27 in - East 6.9 mph - N/A   Unknown
8:56 PM 16.0 °F 7.4 °F 10.9 °F 81% 30.23 in - ENE 5.8 mph - N/A   Unknown
9:56 PM 15.1 °F 5.2 °F 10.0 °F 80% 30.22 in - East 6.9 mph - N/A   Unknown
10:56 PM 14.0 °F 2.9 °F 9.0 °F 80% 30.21 in - East 8.1 mph - N/A   Unknown
11:56 PM 15.1 °F 7.7 °F 10.0 °F 80% 30.19 in - ESE 4.6 mph - N/A   Unknown